Volver al catálogo

ZHIHUI TIANWANG-1 01B

ActivoComunicacionesHEO
NORAD 59706·PAYLOAD·🇨🇳 China

Lanzado May 9, 2024 desde Xichang Satellite Launch Center

Loading…

Próximos Pases (próximas 24 horas)

TLE

ActualizadoSource: Space-Track

Época: Sep 13, 2026, 21:06 UTC

1 59706U 24087B   26256.87957495  .00000006  00000-0  00000-0 0  9999
2 59706  53.1270 166.9266 0027237 202.0464 157.8763  2.00561154 16730

Sigue ZHIHUI TIANWANG-1 01B en tiempo real con AllMySat

Download on the App Store